Location: LDNL
(36.4545°S, 141.6685°E)
Time: 11:26:20
(UTC+10:00)

Tiros 1 - Visible Passes

Search period start: 08 August 2022 00:00
Search period end: 18 August 2022 00:00
Orbit: 629 x 663 km, 48.4° (Epoch: 07 August)

Date Brightness Start Highest point End Pass type
(mag) Time Alt. Az. Time Alt. Az. Time Alt. Az.
09 Aug 10.0 06:52:40 10° N 06:55:58 19° NE 06:59:16 10° E visible
11 Aug 10.0 06:02:12 10° N 06:05:15 17° NE 06:08:16 10° E visible
12 Aug 8.6 06:26:08 10° NNW 06:30:36 39° NE 06:35:04 10° ESE visible
13 Aug 9.9 05:11:49 10° NNE 05:14:31 15° NE 05:17:14 10° E visible
13 Aug 7.3 06:51:21 10° NW 06:56:10 88° NNE 07:00:59 10° SE visible
14 Aug 8.6 05:35:34 11° NNW 05:39:51 35° NE 05:44:14 10° ESE visible
15 Aug 9.9 04:23:33 13° NE 04:23:47 13° NE 04:26:06 10° E visible
15 Aug 7.3 06:01:15 14° NW 06:05:23 81° NE 06:10:13 10° SE visible
16 Aug 8.6 04:48:57 32° NE 04:49:06 32° NE 04:53:23 10° ESE visible
16 Aug 7.5 06:26:38 11° WNW 06:31:09 51° SSW 06:35:51 10° SE visible
17 Aug 7.2 05:14:08 67° N 05:14:36 74° NE 05:19:26 10° ESE visible
